Year,Month,Day,Hour,Minute,Value (Times are PST for temperature in C)
2009,06,02,00,00,17.30
2009,06,02,00,01,17.30
2009,06,02,00,02,17.20
2009,06,02,00,03,17.20
2009,06,02,00,04,17.20
2009,06,02,00,05,17.20
2009,06,02,00,06,17.10
2009,06,02,00,07,17.10
2009,06,02,00,08,17.10
2009,06,02,00,09,17.10
2009,06,02,00,10,17.00
2009,06,02,00,11,17.00
2009,06,02,00,12,17.00
2009,06,02,00,13,17.00
2009,06,02,00,14,16.90
2009,06,02,00,15,16.90
2009,06,02,00,16,16.90
2009,06,02,00,17,16.90
2009,06,02,00,18,16.90
2009,06,02,00,19,16.80
2009,06,02,00,20,16.80
2009,06,02,00,21,16.80
2009,06,02,00,22,16.70
2009,06,02,00,23,16.70
2009,06,02,00,24,16.70
2009,06,02,00,25,16.70
2009,06,02,00,26,16.60
2009,06,02,00,27,16.60
2009,06,02,00,28,16.50
2009,06,02,00,29,16.40
2009,06,02,00,30,16.40
2009,06,02,00,31,16.40
2009,06,02,00,32,16.40
2009,06,02,00,33,16.30
2009,06,02,00,34,16.30
2009,06,02,00,35,16.30
2009,06,02,00,36,16.30
2009,06,02,00,37,16.20
2009,06,02,00,38,16.20
2009,06,02,00,39,16.20
2009,06,02,00,40,16.20
2009,06,02,00,41,16.20
2009,06,02,00,42,16.20
2009,06,02,00,43,16.10
2009,06,02,00,44,16.10
2009,06,02,00,45,16.10
2009,06,02,00,46,16.10
2009,06,02,00,47,16.10
2009,06,02,00,48,16.10
2009,06,02,00,49,16.10
2009,06,02,00,50,16.10
2009,06,02,00,51,16.10
2009,06,02,00,52,16.10
2009,06,02,00,53,16.00
2009,06,02,00,54,15.90
2009,06,02,00,55,15.90
2009,06,02,00,56,15.90
2009,06,02,00,57,15.80
2009,06,02,00,58,15.80
2009,06,02,00,59,15.80
2009,06,02,01,00,15.80
2009,06,02,01,01,15.80
2009,06,02,01,02,15.80
2009,06,02,01,03,15.70
2009,06,02,01,04,15.70
2009,06,02,01,05,15.60
2009,06,02,01,06,15.60
2009,06,02,01,07,15.60
2009,06,02,01,08,15.50
2009,06,02,01,09,15.50
2009,06,02,01,10,15.50
2009,06,02,01,11,15.40
2009,06,02,01,12,15.40
2009,06,02,01,13,15.30
2009,06,02,01,14,15.30
2009,06,02,01,15,15.30
2009,06,02,01,16,15.30
2009,06,02,01,17,15.20
2009,06,02,01,18,15.20
2009,06,02,01,19,15.10
2009,06,02,01,20,15.10
2009,06,02,01,21,15.10
2009,06,02,01,22,15.00
2009,06,02,01,23,15.00
2009,06,02,01,24,15.00
2009,06,02,01,25,15.00
2009,06,02,01,26,14.90
2009,06,02,01,27,14.90
2009,06,02,01,28,14.90
2009,06,02,01,29,14.90
2009,06,02,01,30,14.90
2009,06,02,01,31,14.80
2009,06,02,01,32,14.80
2009,06,02,01,33,14.80
2009,06,02,01,34,14.80
2009,06,02,01,35,14.80
2009,06,02,01,36,14.80
2009,06,02,01,37,14.80
2009,06,02,01,38,14.80
2009,06,02,01,39,14.80
2009,06,02,01,40,14.70
2009,06,02,01,41,14.70
2009,06,02,01,42,14.70
2009,06,02,01,43,14.70
2009,06,02,01,44,14.60
2009,06,02,01,45,14.60
2009,06,02,01,46,14.60
2009,06,02,01,47,14.60
2009,06,02,01,48,14.60
2009,06,02,01,49,14.60
2009,06,02,01,50,14.50
2009,06,02,01,51,14.50
2009,06,02,01,52,14.50
2009,06,02,01,53,14.50
2009,06,02,01,54,14.50
2009,06,02,01,55,14.40
2009,06,02,01,56,14.40
2009,06,02,01,57,14.40
2009,06,02,01,58,14.40
2009,06,02,01,59,14.40
2009,06,02,02,00,14.30
2009,06,02,02,01,14.30
2009,06,02,02,02,14.30
2009,06,02,02,03,14.30
2009,06,02,02,04,14.30
2009,06,02,02,05,14.30
2009,06,02,02,06,14.30
2009,06,02,02,07,14.30
2009,06,02,02,08,14.20
2009,06,02,02,09,14.20
2009,06,02,02,10,14.20
2009,06,02,02,11,14.20
2009,06,02,02,12,14.20
2009,06,02,02,13,14.20
2009,06,02,02,14,14.20
2009,06,02,02,15,14.20
2009,06,02,02,16,14.20
2009,06,02,02,17,14.20
2009,06,02,02,18,14.20
2009,06,02,02,19,14.20
2009,06,02,02,20,14.20
2009,06,02,02,21,14.20
2009,06,02,02,22,14.20
2009,06,02,02,23,14.20
2009,06,02,02,24,14.20
2009,06,02,02,25,14.20
2009,06,02,02,26,14.20
2009,06,02,02,27,14.20
2009,06,02,02,28,14.20
2009,06,02,02,29,14.20
2009,06,02,02,30,14.20
2009,06,02,02,31,14.20
2009,06,02,02,32,14.20
2009,06,02,02,33,14.20
2009,06,02,02,34,14.20
2009,06,02,02,35,14.10
2009,06,02,02,36,14.10
2009,06,02,02,37,14.10
2009,06,02,02,38,14.10
2009,06,02,02,39,14.10
2009,06,02,02,40,14.10
2009,06,02,02,41,14.10
2009,06,02,02,42,14.10
2009,06,02,02,43,14.00
2009,06,02,02,44,14.00
2009,06,02,02,45,14.00
2009,06,02,02,46,14.00
2009,06,02,02,47,14.00
2009,06,02,02,48,14.00
2009,06,02,02,49,13.90
2009,06,02,02,50,13.90
2009,06,02,02,51,13.90
2009,06,02,02,52,13.90
2009,06,02,02,53,13.90
2009,06,02,02,54,13.80
2009,06,02,02,55,13.80
2009,06,02,02,56,13.80
2009,06,02,02,57,13.80
2009,06,02,02,58,13.80
2009,06,02,02,59,13.80
2009,06,02,03,00,13.70
2009,06,02,03,01,13.70
2009,06,02,03,02,13.70
2009,06,02,03,03,13.70
2009,06,02,03,04,13.70
2009,06,02,03,05,13.70
2009,06,02,03,06,13.70
2009,06,02,03,07,13.70
2009,06,02,03,08,13.70
2009,06,02,03,09,13.70
2009,06,02,03,10,13.70
2009,06,02,03,11,13.70
2009,06,02,03,12,13.70
2009,06,02,03,13,13.70
2009,06,02,03,14,13.70
2009,06,02,03,15,13.70
2009,06,02,03,16,13.70
2009,06,02,03,17,13.70
2009,06,02,03,18,13.70
2009,06,02,03,19,13.70
2009,06,02,03,20,13.70
2009,06,02,03,21,13.80
2009,06,02,03,22,13.80
2009,06,02,03,23,13.80
2009,06,02,03,24,13.80
2009,06,02,03,25,13.80
2009,06,02,03,26,13.80
2009,06,02,03,27,13.80
2009,06,02,03,28,13.80
2009,06,02,03,29,13.80
2009,06,02,03,30,13.80
2009,06,02,03,31,13.80
2009,06,02,03,32,13.80
2009,06,02,03,33,13.80
2009,06,02,03,34,13.80
2009,06,02,03,35,13.80
2009,06,02,03,36,13.70
2009,06,02,03,37,13.70
2009,06,02,03,38,13.70
2009,06,02,03,39,13.70
2009,06,02,03,40,13.70
2009,06,02,03,41,13.70
2009,06,02,03,42,13.70
2009,06,02,03,43,13.70
2009,06,02,03,44,13.70
2009,06,02,03,45,13.70
2009,06,02,03,46,13.70
2009,06,02,03,47,13.70
2009,06,02,03,48,13.70
2009,06,02,03,49,13.70
2009,06,02,03,50,13.70
2009,06,02,03,51,13.70
2009,06,02,03,52,13.80
2009,06,02,03,53,13.80
2009,06,02,03,54,13.90
2009,06,02,03,55,14.00
2009,06,02,03,56,14.00
2009,06,02,03,57,14.10
2009,06,02,03,58,14.10
2009,06,02,03,59,14.10
2009,06,02,04,00,14.10
2009,06,02,04,01,14.10
2009,06,02,04,02,14.10
2009,06,02,04,03,14.10
2009,06,02,04,04,14.00
2009,06,02,04,05,14.00
2009,06,02,04,06,14.00
2009,06,02,04,07,14.00
2009,06,02,04,08,14.10
2009,06,02,04,09,14.10
2009,06,02,04,10,14.00
2009,06,02,04,11,14.00
2009,06,02,04,12,14.00
2009,06,02,04,13,14.00
2009,06,02,04,14,14.00
2009,06,02,04,15,14.00
2009,06,02,04,16,13.90
2009,06,02,04,17,13.90
2009,06,02,04,18,13.90
2009,06,02,04,19,13.80
2009,06,02,04,20,13.80
2009,06,02,04,21,13.80
2009,06,02,04,22,13.80
2009,06,02,04,23,13.80
2009,06,02,04,24,13.80
2009,06,02,04,25,13.80
2009,06,02,04,26,13.70
2009,06,02,04,27,13.70
2009,06,02,04,28,13.70
2009,06,02,04,29,13.70
2009,06,02,04,30,13.70
2009,06,02,04,31,13.70
2009,06,02,04,32,13.70
2009,06,02,04,33,13.70
2009,06,02,04,34,13.70
2009,06,02,04,35,13.70
2009,06,02,04,36,13.70
2009,06,02,04,37,13.70
2009,06,02,04,38,13.70
2009,06,02,04,39,13.70
2009,06,02,04,40,13.60
2009,06,02,04,41,13.60
2009,06,02,04,42,13.60
2009,06,02,04,43,13.60
2009,06,02,04,44,13.60
2009,06,02,04,45,13.60
2009,06,02,04,46,13.60
2009,06,02,04,47,13.60
2009,06,02,04,48,13.60
2009,06,02,04,49,13.60
2009,06,02,04,50,13.60
2009,06,02,04,51,13.60
2009,06,02,04,52,13.60
2009,06,02,04,53,13.50
2009,06,02,04,54,13.50
2009,06,02,04,55,13.50
2009,06,02,04,56,13.50
2009,06,02,04,57,13.50
2009,06,02,04,58,13.50
2009,06,02,04,59,13.50
2009,06,02,05,00,13.60
2009,06,02,05,01,13.60
2009,06,02,05,02,13.60
2009,06,02,05,03,13.60
2009,06,02,05,04,13.60
2009,06,02,05,05,13.70
2009,06,02,05,06,13.70
2009,06,02,05,07,13.70
2009,06,02,05,08,13.70
2009,06,02,05,09,13.70
2009,06,02,05,10,13.70
2009,06,02,05,11,13.70
2009,06,02,05,12,13.70
2009,06,02,05,13,13.70
2009,06,02,05,14,13.60
2009,06,02,05,15,13.60
2009,06,02,05,16,13.60
2009,06,02,05,17,13.60
2009,06,02,05,18,13.60
2009,06,02,05,19,13.50
2009,06,02,05,20,13.50
2009,06,02,05,21,13.50
2009,06,02,05,22,13.50
2009,06,02,05,23,13.50
2009,06,02,05,24,13.50
2009,06,02,05,25,13.50
2009,06,02,05,26,13.50
2009,06,02,05,27,13.50
2009,06,02,05,28,13.40
2009,06,02,05,29,13.40
2009,06,02,05,30,13.40
2009,06,02,05,31,13.40
2009,06,02,05,32,13.30
2009,06,02,05,33,13.30
2009,06,02,05,34,13.30
2009,06,02,05,35,13.30
2009,06,02,05,36,13.30
2009,06,02,05,37,13.30
2009,06,02,05,38,13.30
2009,06,02,05,39,13.30
2009,06,02,05,40,13.30
2009,06,02,05,41,13.30
2009,06,02,05,42,13.30
2009,06,02,05,43,13.30
2009,06,02,05,44,13.30
2009,06,02,05,45,13.30
2009,06,02,05,46,13.30
2009,06,02,05,47,13.30
2009,06,02,05,48,13.30
2009,06,02,05,49,13.30
2009,06,02,05,50,13.30
2009,06,02,05,51,13.30
2009,06,02,05,52,13.30
2009,06,02,05,53,13.30
2009,06,02,05,54,13.30
2009,06,02,05,55,13.30
2009,06,02,05,56,13.30
2009,06,02,05,57,13.40
2009,06,02,05,58,13.40
2009,06,02,05,59,13.40
2009,06,02,06,00,13.50
2009,06,02,06,01,13.50
2009,06,02,06,02,13.60
2009,06,02,06,03,13.60
2009,06,02,06,04,13.70
2009,06,02,06,05,13.70
2009,06,02,06,06,13.70
2009,06,02,06,07,13.70
2009,06,02,06,08,13.70
2009,06,02,06,09,13.70
2009,06,02,06,10,13.70
2009,06,02,06,11,13.70
2009,06,02,06,12,13.70
2009,06,02,06,13,13.80
2009,06,02,06,14,13.80
2009,06,02,06,15,13.80
2009,06,02,06,16,13.80
2009,06,02,06,17,13.90
2009,06,02,06,18,13.90
2009,06,02,06,19,13.90
2009,06,02,06,20,14.00
2009,06,02,06,21,14.00
2009,06,02,06,22,14.00
2009,06,02,06,23,14.10
2009,06,02,06,24,14.20
2009,06,02,06,25,14.20
2009,06,02,06,26,14.30
2009,06,02,06,27,14.40
2009,06,02,06,28,14.40
2009,06,02,06,29,14.50
2009,06,02,06,30,14.50
2009,06,02,06,31,14.60
2009,06,02,06,32,14.70
2009,06,02,06,33,14.70
2009,06,02,06,34,14.80
2009,06,02,06,35,14.80
2009,06,02,06,36,14.80
2009,06,02,06,37,14.90
2009,06,02,06,38,14.90
2009,06,02,06,39,15.00
2009,06,02,06,40,15.00
2009,06,02,06,41,15.00
2009,06,02,06,42,15.00
2009,06,02,06,43,15.00
2009,06,02,06,44,15.00
2009,06,02,06,45,15.00
2009,06,02,06,46,15.00
2009,06,02,06,47,15.00
2009,06,02,06,48,15.00
2009,06,02,06,49,15.00
2009,06,02,06,50,15.00
2009,06,02,06,51,15.10
2009,06,02,06,52,15.10
2009,06,02,06,53,15.10
2009,06,02,06,54,15.10
2009,06,02,06,55,15.20
2009,06,02,06,56,15.20
2009,06,02,06,57,15.20
2009,06,02,06,58,15.20
2009,06,02,06,59,15.20
2009,06,02,07,00,15.20
2009,06,02,07,01,15.30
2009,06,02,07,02,15.30
2009,06,02,07,03,15.30
2009,06,02,07,04,15.30
2009,06,02,07,05,15.30
2009,06,02,07,06,15.30
2009,06,02,07,07,15.40
2009,06,02,07,08,15.40
2009,06,02,07,09,15.50
2009,06,02,07,10,15.50
2009,06,02,07,11,15.60
2009,06,02,07,12,15.70
2009,06,02,07,13,15.80
2009,06,02,07,14,15.80
2009,06,02,07,15,15.80
2009,06,02,07,16,15.90
2009,06,02,07,17,16.00
2009,06,02,07,18,16.10
2009,06,02,07,19,16.20
2009,06,02,07,20,16.20
2009,06,02,07,21,16.30
2009,06,02,07,22,16.40
2009,06,02,07,23,16.50
2009,06,02,07,24,16.60
2009,06,02,07,25,16.80
2009,06,02,07,26,16.90
2009,06,02,07,27,17.00
2009,06,02,07,28,17.10
2009,06,02,07,29,17.20
2009,06,02,07,30,17.30
2009,06,02,07,31,17.40
2009,06,02,07,32,17.50
2009,06,02,07,33,17.60
2009,06,02,07,34,17.70
2009,06,02,07,35,17.80
2009,06,02,07,36,17.90
2009,06,02,07,37,18.00
2009,06,02,07,38,18.10
2009,06,02,07,39,18.10
2009,06,02,07,40,18.20
2009,06,02,07,41,18.20
2009,06,02,07,42,18.30
2009,06,02,07,43,18.30
2009,06,02,07,44,18.40
2009,06,02,07,45,18.50
2009,06,02,07,46,18.50
2009,06,02,07,47,18.60
2009,06,02,07,48,18.60
2009,06,02,07,49,18.60
2009,06,02,07,50,18.60
2009,06,02,07,51,18.70
2009,06,02,07,52,18.70
2009,06,02,07,53,18.80
2009,06,02,07,54,18.80
2009,06,02,07,55,18.80
2009,06,02,07,56,18.90
2009,06,02,07,57,18.90
2009,06,02,07,58,18.90
2009,06,02,07,59,18.90
2009,06,02,08,00,18.90
2009,06,02,08,01,19.10
2009,06,02,08,02,19.10
2009,06,02,08,03,19.10
2009,06,02,08,04,19.10
2009,06,02,08,05,19.10
2009,06,02,08,06,19.20
2009,06,02,08,07,19.20
2009,06,02,08,08,19.20
2009,06,02,08,09,19.30
2009,06,02,08,10,19.30
2009,06,02,08,11,19.40
2009,06,02,08,12,19.40
2009,06,02,08,13,19.40
2009,06,02,08,14,19.50
2009,06,02,08,15,19.50
2009,06,02,08,16,19.50
2009,06,02,08,17,19.50
2009,06,02,08,18,19.50
2009,06,02,08,19,19.50
2009,06,02,08,20,19.40
2009,06,02,08,21,19.40
2009,06,02,08,22,19.40
2009,06,02,08,23,19.30
2009,06,02,08,24,19.30
2009,06,02,08,25,19.20
2009,06,02,08,26,19.20
2009,06,02,08,27,19.10
2009,06,02,08,28,19.10
2009,06,02,08,29,19.00
2009,06,02,08,30,18.80
2009,06,02,08,31,18.60
2009,06,02,08,32,18.30
2009,06,02,08,33,18.00
2009,06,02,08,34,17.70
2009,06,02,08,35,17.50
2009,06,02,08,36,17.30
2009,06,02,08,37,17.00
2009,06,02,08,38,16.80
2009,06,02,08,39,16.70
2009,06,02,08,40,16.60
2009,06,02,08,41,16.60
2009,06,02,08,42,16.60
2009,06,02,08,43,16.60
2009,06,02,08,44,16.50
2009,06,02,08,45,16.40
2009,06,02,08,46,16.40
2009,06,02,08,47,16.40
2009,06,02,08,48,16.40
2009,06,02,08,49,16.40
2009,06,02,08,50,16.40
2009,06,02,08,51,16.50
2009,06,02,08,52,16.60
2009,06,02,08,53,16.60
2009,06,02,08,54,16.70
2009,06,02,08,55,16.80
2009,06,02,08,56,16.90
2009,06,02,08,57,17.00
2009,06,02,08,58,17.20
2009,06,02,08,59,17.40
2009,06,02,09,00,17.50
2009,06,02,09,01,17.70
2009,06,02,09,02,17.90
2009,06,02,09,03,18.00
2009,06,02,09,04,18.20
2009,06,02,09,05,18.30
2009,06,02,09,06,18.40
2009,06,02,09,07,18.60
2009,06,02,09,08,18.70
2009,06,02,09,09,18.90
2009,06,02,09,10,19.00
2009,06,02,09,11,19.20
2009,06,02,09,12,19.30
2009,06,02,09,13,19.50
2009,06,02,09,14,19.60
2009,06,02,09,15,19.70
2009,06,02,09,16,19.70
2009,06,02,09,17,19.80
2009,06,02,09,18,19.90
2009,06,02,09,19,20.00
2009,06,02,09,20,20.10
2009,06,02,09,21,20.20
2009,06,02,09,22,20.30
2009,06,02,09,23,20.40
2009,06,02,09,24,20.50
2009,06,02,09,25,20.60
2009,06,02,09,26,20.70
2009,06,02,09,27,20.90
2009,06,02,09,28,21.00
2009,06,02,09,29,21.10
2009,06,02,09,30,21.30
2009,06,02,09,31,21.30
2009,06,02,09,32,21.40
2009,06,02,09,33,21.60
2009,06,02,09,34,21.60
2009,06,02,09,35,21.60
2009,06,02,09,36,21.60
2009,06,02,09,37,21.60
2009,06,02,09,38,21.70
2009,06,02,09,39,21.70
2009,06,02,09,40,21.90
2009,06,02,09,41,22.00
2009,06,02,09,42,22.10
2009,06,02,09,43,22.20
2009,06,02,09,44,22.30
2009,06,02,09,45,22.30
2009,06,02,09,46,22.30
2009,06,02,09,47,22.40
2009,06,02,09,48,22.50
2009,06,02,09,49,22.60
2009,06,02,09,50,22.70
2009,06,02,09,51,22.80
2009,06,02,09,52,22.90
2009,06,02,09,53,23.00
2009,06,02,09,54,23.10
2009,06,02,09,55,23.10
2009,06,02,09,56,23.20
2009,06,02,09,57,23.20
2009,06,02,09,58,23.30
2009,06,02,09,59,23.30
2009,06,02,10,00,23.30
2009,06,02,10,01,23.30
2009,06,02,10,02,23.40
2009,06,02,10,03,23.50
2009,06,02,10,04,23.60
2009,06,02,10,05,23.70
2009,06,02,10,06,23.70
2009,06,02,10,07,23.70
2009,06,02,10,08,23.70
2009,06,02,10,09,23.80
2009,06,02,10,10,23.90
2009,06,02,10,11,24.00
2009,06,02,10,12,24.10
2009,06,02,10,13,24.20
2009,06,02,10,14,24.30
2009,06,02,10,15,24.30
2009,06,02,10,16,24.40
2009,06,02,10,17,24.40
2009,06,02,10,18,24.40
2009,06,02,10,19,24.30
2009,06,02,10,20,24.30
2009,06,02,10,21,24.30
2009,06,02,10,22,24.30
2009,06,02,10,23,24.30
2009,06,02,10,24,24.40
2009,06,02,10,25,24.50
2009,06,02,10,26,24.60
2009,06,02,10,27,24.50
2009,06,02,10,28,24.50
2009,06,02,10,29,24.60
2009,06,02,10,30,24.50
2009,06,02,10,31,24.50
2009,06,02,10,32,24.60
2009,06,02,10,33,24.70
2009,06,02,10,34,24.80
2009,06,02,10,35,24.80
2009,06,02,10,36,24.80
2009,06,02,10,37,24.90
2009,06,02,10,38,25.00
2009,06,02,10,39,25.10
2009,06,02,10,40,25.10
2009,06,02,10,41,25.10
2009,06,02,10,42,25.00
2009,06,02,10,43,24.90
2009,06,02,10,44,25.00
2009,06,02,10,45,24.90
2009,06,02,10,46,24.90
2009,06,02,10,47,24.90
2009,06,02,10,48,24.90
2009,06,02,10,49,24.90
2009,06,02,10,50,24.90
2009,06,02,10,51,25.00
2009,06,02,10,52,25.10
2009,06,02,10,53,25.20
2009,06,02,10,54,25.30
2009,06,02,10,55,25.30
2009,06,02,10,56,25.40
2009,06,02,10,57,25.40
2009,06,02,10,58,25.50
2009,06,02,10,59,25.60
2009,06,02,11,00,25.60
2009,06,02,11,01,25.80
2009,06,02,11,02,25.80
2009,06,02,11,03,25.70
2009,06,02,11,04,25.50
2009,06,02,11,05,25.30
2009,06,02,11,06,25.20
2009,06,02,11,07,25.20
2009,06,02,11,08,25.10
2009,06,02,11,09,25.10
2009,06,02,11,10,25.10
2009,06,02,11,11,25.00
2009,06,02,11,12,25.10
2009,06,02,11,13,25.10
2009,06,02,11,14,25.10
2009,06,02,11,15,25.00
2009,06,02,11,16,24.90
2009,06,02,11,17,24.90
2009,06,02,11,18,24.90
2009,06,02,11,19,24.90
2009,06,02,11,20,24.90
2009,06,02,11,21,24.80
2009,06,02,11,22,24.80
2009,06,02,11,23,24.80
2009,06,02,11,24,24.80
2009,06,02,11,25,24.80
2009,06,02,11,26,24.70
2009,06,02,11,27,24.70
2009,06,02,11,28,24.60
2009,06,02,11,29,24.70
2009,06,02,11,30,24.70
2009,06,02,11,31,24.80
2009,06,02,11,32,24.80
2009,06,02,11,33,24.90
2009,06,02,11,34,25.00
2009,06,02,11,35,25.20
2009,06,02,11,36,25.20
2009,06,02,11,37,25.30
2009,06,02,11,38,25.30
2009,06,02,11,39,25.40
2009,06,02,11,40,25.50
2009,06,02,11,41,25.60
2009,06,02,11,42,25.60
2009,06,02,11,43,25.60
2009,06,02,11,44,25.50
2009,06,02,11,45,25.60
2009,06,02,11,46,25.60
2009,06,02,11,47,25.70
2009,06,02,11,48,25.70
2009,06,02,11,49,25.70
2009,06,02,11,50,25.60
2009,06,02,11,51,25.60
2009,06,02,11,52,25.50
2009,06,02,11,53,25.40
2009,06,02,11,54,25.40
2009,06,02,11,55,25.40
2009,06,02,11,56,25.30
2009,06,02,11,57,25.40
2009,06,02,11,58,25.40
2009,06,02,11,59,25.50
2009,06,02,12,00,25.60
2009,06,02,12,01,25.60
2009,06,02,12,02,25.80
2009,06,02,12,03,25.90
2009,06,02,12,04,25.90
2009,06,02,12,05,26.00
2009,06,02,12,06,26.10
2009,06,02,12,07,26.20
2009,06,02,12,08,26.30
2009,06,02,12,09,26.40
2009,06,02,12,10,26.40
2009,06,02,12,11,26.40
2009,06,02,12,12,26.30
2009,06,02,12,13,26.20
2009,06,02,12,14,26.20
2009,06,02,12,15,26.30
2009,06,02,12,16,26.40
2009,06,02,12,17,26.50
2009,06,02,12,18,26.60
2009,06,02,12,19,26.60
2009,06,02,12,20,26.60
2009,06,02,12,21,26.50
2009,06,02,12,22,26.40
2009,06,02,12,23,26.30
2009,06,02,12,24,26.20
2009,06,02,12,25,26.00
2009,06,02,12,26,26.00
2009,06,02,12,27,25.90
2009,06,02,12,28,25.90
2009,06,02,12,29,25.90
2009,06,02,12,30,25.80
2009,06,02,12,31,25.70
2009,06,02,12,32,25.70
2009,06,02,12,33,25.70
2009,06,02,12,34,25.60
2009,06,02,12,35,25.80
2009,06,02,12,36,25.90
2009,06,02,12,37,26.00
2009,06,02,12,38,26.20
2009,06,02,12,39,26.40
2009,06,02,12,40,26.60
2009,06,02,12,41,26.60
2009,06,02,12,42,26.60
2009,06,02,12,43,26.60
2009,06,02,12,44,26.70
2009,06,02,12,45,26.80
2009,06,02,12,46,26.80
2009,06,02,12,47,26.80
2009,06,02,12,48,26.80
2009,06,02,12,49,26.70
2009,06,02,12,50,26.70
2009,06,02,12,51,26.70
2009,06,02,12,52,26.70
2009,06,02,12,53,26.70
2009,06,02,12,54,26.70
2009,06,02,12,55,26.60
2009,06,02,12,56,26.60
2009,06,02,12,57,26.60
2009,06,02,12,58,26.60
2009,06,02,12,59,26.70
2009,06,02,13,00,26.70
2009,06,02,13,01,26.80
2009,06,02,13,02,26.90
2009,06,02,13,03,27.00
2009,06,02,13,04,27.20
2009,06,02,13,05,27.40
2009,06,02,13,06,27.50
2009,06,02,13,07,27.60
2009,06,02,13,08,27.80
2009,06,02,13,09,27.80
2009,06,02,13,10,27.70
2009,06,02,13,11,27.70
2009,06,02,13,12,27.70
2009,06,02,13,13,27.70
2009,06,02,13,14,27.80
2009,06,02,13,15,27.90
2009,06,02,13,16,27.90
2009,06,02,13,17,27.80
2009,06,02,13,18,27.80
2009,06,02,13,19,27.80
2009,06,02,13,20,27.80
2009,06,02,13,21,27.80
2009,06,02,13,22,27.80
2009,06,02,13,23,27.80
2009,06,02,13,24,27.70
2009,06,02,13,25,27.60
2009,06,02,13,26,27.60
2009,06,02,13,27,27.60
2009,06,02,13,28,27.70
2009,06,02,13,29,27.70
2009,06,02,13,30,27.80
2009,06,02,13,31,27.90
2009,06,02,13,32,28.00
2009,06,02,13,33,28.00
2009,06,02,13,34,28.00
2009,06,02,13,35,27.90
2009,06,02,13,36,28.00
2009,06,02,13,37,27.90
2009,06,02,13,38,27.90
2009,06,02,13,39,27.80
2009,06,02,13,40,27.70
2009,06,02,13,41,27.70
2009,06,02,13,42,27.70
2009,06,02,13,43,27.60
2009,06,02,13,44,27.60
2009,06,02,13,45,27.70
2009,06,02,13,46,27.90
2009,06,02,13,47,28.00
2009,06,02,13,48,28.10
2009,06,02,13,49,28.10
2009,06,02,13,50,28.10
2009,06,02,13,51,28.10
2009,06,02,13,52,28.20
2009,06,02,13,53,28.40
2009,06,02,13,54,28.50
2009,06,02,13,55,28.60
2009,06,02,13,56,28.70
2009,06,02,13,57,28.80
2009,06,02,13,58,28.90
2009,06,02,13,59,28.90
2009,06,02,14,00,28.90
2009,06,02,14,01,28.90
2009,06,02,14,02,28.90
2009,06,02,14,03,28.90
2009,06,02,14,04,28.80
2009,06,02,14,05,28.80
2009,06,02,14,06,28.80
2009,06,02,14,07,28.80
2009,06,02,14,08,28.80
2009,06,02,14,09,28.70
2009,06,02,14,10,28.50
2009,06,02,14,11,28.40
2009,06,02,14,12,28.40
2009,06,02,14,13,28.30
2009,06,02,14,14,28.40
2009,06,02,14,15,28.40
2009,06,02,14,16,28.30
2009,06,02,14,17,28.10
2009,06,02,14,18,27.90
2009,06,02,14,19,27.90
2009,06,02,14,20,27.90
2009,06,02,14,21,28.00
2009,06,02,14,22,27.90
2009,06,02,14,23,27.90
2009,06,02,14,24,27.90
2009,06,02,14,25,27.90
2009,06,02,14,26,27.90
2009,06,02,14,27,28.00
2009,06,02,14,28,28.00
2009,06,02,14,29,28.10
2009,06,02,14,30,28.20
2009,06,02,14,31,28.40
2009,06,02,14,32,28.60
2009,06,02,14,33,28.70
2009,06,02,14,34,28.70
2009,06,02,14,35,28.60
2009,06,02,14,36,28.50
2009,06,02,14,37,28.30
2009,06,02,14,38,28.30
2009,06,02,14,39,28.40
2009,06,02,14,40,28.50
2009,06,02,14,41,28.60
2009,06,02,14,42,28.70
2009,06,02,14,43,28.70
2009,06,02,14,44,28.60
2009,06,02,14,45,28.60
2009,06,02,14,46,28.30
2009,06,02,14,47,28.10
2009,06,02,14,48,28.00
2009,06,02,14,49,28.00
2009,06,02,14,50,28.10
2009,06,02,14,51,28.10
2009,06,02,14,52,28.10
2009,06,02,14,53,28.20
2009,06,02,14,54,28.20
2009,06,02,14,55,28.00
2009,06,02,14,56,28.00
2009,06,02,14,57,27.90
2009,06,02,14,58,27.90
2009,06,02,14,59,27.90
2009,06,02,15,00,27.80
2009,06,02,15,01,27.70
2009,06,02,15,02,27.60
2009,06,02,15,03,27.50
2009,06,02,15,04,27.40
2009,06,02,15,05,27.60
2009,06,02,15,06,27.50
2009,06,02,15,07,27.40
2009,06,02,15,08,27.30
2009,06,02,15,09,27.30
2009,06,02,15,10,27.30
2009,06,02,15,11,27.30
2009,06,02,15,12,27.30
2009,06,02,15,13,27.40
2009,06,02,15,14,27.50
2009,06,02,15,15,27.60
2009,06,02,15,16,27.70
2009,06,02,15,17,27.70
2009,06,02,15,18,27.90
2009,06,02,15,19,27.90
2009,06,02,15,20,28.00
2009,06,02,15,21,28.00
2009,06,02,15,22,28.10
2009,06,02,15,23,28.30
2009,06,02,15,24,28.50
2009,06,02,15,25,28.60
2009,06,02,15,26,28.60
2009,06,02,15,27,28.70
2009,06,02,15,28,28.80
2009,06,02,15,29,28.80
2009,06,02,15,30,28.80
2009,06,02,15,31,28.70
2009,06,02,15,32,28.60
2009,06,02,15,33,28.50
2009,06,02,15,34,28.40
2009,06,02,15,35,28.30
2009,06,02,15,36,28.20
2009,06,02,15,37,28.20
2009,06,02,15,38,28.10
2009,06,02,15,39,28.20
2009,06,02,15,40,28.20
2009,06,02,15,41,28.20
2009,06,02,15,42,28.30
2009,06,02,15,43,28.30
2009,06,02,15,44,28.20
2009,06,02,15,45,28.20
2009,06,02,15,46,28.20
2009,06,02,15,47,28.20
2009,06,02,15,48,28.20
2009,06,02,15,49,28.10
2009,06,02,15,50,28.00
2009,06,02,15,51,27.90
2009,06,02,15,52,27.70
2009,06,02,15,53,27.60
2009,06,02,15,54,27.50
2009,06,02,15,55,27.40
2009,06,02,15,56,27.40
2009,06,02,15,57,27.30
2009,06,02,15,58,27.30
2009,06,02,15,59,27.30
2009,06,02,16,00,27.30
2009,06,02,16,01,27.30
2009,06,02,16,02,27.40
2009,06,02,16,03,27.40
2009,06,02,16,04,27.40
2009,06,02,16,05,27.40
2009,06,02,16,06,27.40
2009,06,02,16,07,27.40
2009,06,02,16,08,27.40
2009,06,02,16,09,27.40
2009,06,02,16,10,27.40
2009,06,02,16,11,27.40
2009,06,02,16,12,27.30
2009,06,02,16,13,27.30
2009,06,02,16,14,27.30
2009,06,02,16,15,27.30
2009,06,02,16,16,27.40
2009,06,02,16,17,27.40
2009,06,02,16,18,27.60
2009,06,02,16,19,27.50
2009,06,02,16,20,27.40
2009,06,02,16,21,27.60
2009,06,02,16,22,27.60
2009,06,02,16,23,27.60
2009,06,02,16,24,27.60
2009,06,02,16,25,27.60
2009,06,02,16,26,27.70
2009,06,02,16,27,27.60
2009,06,02,16,28,27.60
2009,06,02,16,29,27.60
2009,06,02,16,30,27.50
2009,06,02,16,31,27.40
2009,06,02,16,32,27.40
2009,06,02,16,33,27.40
2009,06,02,16,34,27.40
2009,06,02,16,35,27.50
2009,06,02,16,36,27.60
2009,06,02,16,37,27.60
2009,06,02,16,38,27.60
2009,06,02,16,39,27.70
2009,06,02,16,40,27.80
2009,06,02,16,41,27.90
2009,06,02,16,42,27.90
2009,06,02,16,43,27.90
2009,06,02,16,44,27.90
2009,06,02,16,45,27.90
2009,06,02,16,46,27.90
2009,06,02,16,47,28.00
2009,06,02,16,48,28.00
2009,06,02,16,49,28.00
2009,06,02,16,50,28.00
2009,06,02,16,51,28.00
2009,06,02,16,52,28.00
2009,06,02,16,53,28.00
2009,06,02,16,54,28.00
2009,06,02,16,55,28.10
2009,06,02,16,56,28.20
2009,06,02,16,57,28.30
2009,06,02,16,58,28.40
2009,06,02,16,59,28.40
2009,06,02,17,00,28.50
2009,06,02,17,01,28.60
2009,06,02,17,02,28.60
2009,06,02,17,03,28.60
2009,06,02,17,04,28.60
2009,06,02,17,05,28.60
2009,06,02,17,06,28.60
2009,06,02,17,07,28.50
2009,06,02,17,08,28.40
2009,06,02,17,09,28.20
2009,06,02,17,10,28.00
2009,06,02,17,11,28.00
2009,06,02,17,12,28.00
2009,06,02,17,13,28.00
2009,06,02,17,14,28.00
2009,06,02,17,15,28.10
2009,06,02,17,16,28.10
2009,06,02,17,17,28.10
2009,06,02,17,18,28.10
2009,06,02,17,19,28.20